Погода в Тегале

Индонезия     6°52′09″S   109°06′56″E
темп.,
°C
ветер,
м/с
пор.,
м/с
влажн.,
%
обл.,
%
осадки,
мм/ч
давл.,
гПа
погр.,
м
2 марта, вт
вт201:00+28ссз227686 4.2 1011475
04:00+27з2381100 1.4 1009460
07:00+27зюз348299 6.0 1011536
10:00+27сз347834 0.0 1011534
13:00+28ссз687722 0.0 1009768
16:00+29ссз787496 0.1 1008717
19:00+29сз347798 1.3 1010485
22:00+28зсз237698 0.3 1012507
3 марта, ср
ср301:00+28з347799 0.3 1010580
04:00+27зюз247789 0.1 1009469
07:00+28з357676 0.1 1011637
10:00+28зсз6779100 0.0 1012642
13:00+28ссз567869 0.5 1009539
16:00+29с67760 2.7 1008507
19:00+28сз457823 7.4 1010290
22:00+25зюз678897 4.7 1012290
4 марта, чт
чт401:00+25зюз348699 7.8 1011292
04:00+26зюз4581100 0.1 1010390
07:00+26зюз3481100 0.5 1012273
10:00+26ю1179100 0.0 1012198
13:00+27зсз2372100 0.0 1010391
16:00+28ссз447498 0.0 1008565
19:00+28ссз117299 0.6 1011393
22:00+28ююз227699 0.1 1012156
5 марта, пт
пт501:00+27з668295 2.1 1011358
04:00+26з6786100 0.4 1010311
07:00+26юз338094 0.4 1011231
10:00+29ю337086 0.0 1011354
13:00+30с336368 0.0 1009337
16:00+29ссз77653 0.0 1007308
19:00+28сз34706 3.6 1010388
22:00+28з337043 0.5 1011394
6 марта, сб
сб601:00+26юз337848 0.5 1010244
04:00+26ю117680 0.0 1009144
07:00+26ююв217689 0.1 1011124
10:00+27с1174100 0.2 1011231
13:00+28ссз447288 0.7 1009515
16:00+28с447210 2.1 1008471
19:00+26з668645 9.6 1010382
22:00+24зюз2392100 12.4 1012224